AAL1799 KPHX-KSMF

Flight info

Callsign AAL1799
Flight time 1h 32m
Altitude 38000
Route ZEPER2 RRSTA DOVEE BTY KENNO DONNR SLMMR5
Aircraft B38M/M-SDE1FGHILORVWXY/HB1

Departure

Time 2026-05-08 00:11
Airport Phoenix Sky Harbor International Airport (KPHX)

Arrival

Time 2026-05-08 01:44
Airport Sacramento International Airport (KSMF)
Time Latitude Longitude Altitude Speed Heading
2026-05-07 23:49 33.43839 -112.00172 1127 ft 0 kts 180°
2026-05-08 00:01 33.43851 -112.00172 1117 ft 4 kts 176°
2026-05-08 00:01 33.43877 -112.00178 1123 ft 4 kts 160°
2026-05-08 00:01 33.43899 -112.00193 1116 ft 4 kts 126°
2026-05-08 00:01 33.43905 -112.00211 1116 ft 0 kts 90°
2026-05-08 00:05 33.43905 -112.00206 1117 ft 3 kts 91°
2026-05-08 00:06 33.43904 -112.00140 1128 ft 13 kts 90°
2026-05-08 00:06 33.43904 -112.00008 1128 ft 17 kts 90°
2026-05-08 00:06 33.43904 -111.99857 1128 ft 19 kts 90°
2026-05-08 00:06 33.43904 -111.99695 1128 ft 20 kts 90°
2026-05-08 00:07 33.43904 -111.99522 1128 ft 21 kts 90°
2026-05-08 00:07 33.43905 -111.99345 1128 ft 20 kts 90°
2026-05-08 00:07 33.43893 -111.99236 1120 ft 11 kts 134°
2026-05-08 00:07 33.43813 -111.99225 1122 ft 13 kts 180°
2026-05-08 00:08 33.43707 -111.99226 1121 ft 18 kts 181°
2026-05-08 00:08 33.43571 -111.99225 1123 ft 21 kts 180°
2026-05-08 00:08 33.43440 -111.99236 1123 ft 16 kts 193°
2026-05-08 00:08 33.43322 -111.99247 1122 ft 18 kts 180°
2026-05-08 00:09 33.43217 -111.99261 1133 ft 12 kts 205°
2026-05-08 00:09 33.43155 -111.99318 1137 ft 10 kts 219°
2026-05-08 00:09 33.43110 -111.99369 1136 ft 9 kts 243°
2026-05-08 00:09 33.43104 -111.99414 1135 ft 0 kts 269°
2026-05-08 00:10 33.43104 -111.99441 1135 ft 15 kts 270°
2026-05-08 00:10 33.43104 -111.99757 1134 ft 70 kts 270°
2026-05-08 00:10 33.43105 -112.00617 1134 ft 134 kts 270°
2026-05-08 00:11 33.43106 -112.01951 1178 ft 180 kts 270°
2026-05-08 00:11 33.43123 -112.03485 1834 ft 185 kts 270°
2026-05-08 00:11 33.43141 -112.05001 2697 ft 177 kts 270°
2026-05-08 00:11 33.43162 -112.06557 3171 ft 199 kts 271°
2026-05-08 00:12 33.43211 -112.08329 3565 ft 225 kts 271°
2026-05-08 00:12 33.43268 -112.10267 4212 ft 239 kts 271°
2026-05-08 00:12 33.43326 -112.12284 5039 ft 245 kts 271°
2026-05-08 00:12 33.43385 -112.14332 5976 ft 245 kts 272°
2026-05-08 00:13 33.43514 -112.16365 6871 ft 248 kts 284°
2026-05-08 00:13 33.44316 -112.18197 7659 ft 253 kts 314°
2026-05-08 00:13 33.45787 -112.19363 8463 ft 258 kts 342°
2026-05-08 00:13 33.47572 -112.19643 9176 ft 264 kts
2026-05-08 00:14 33.49408 -112.19628 9606 ft 261 kts
2026-05-08 00:14 33.51215 -112.19608 10523 ft 260 kts
2026-05-08 00:14 33.53035 -112.19606 11292 ft 266 kts 358°
2026-05-08 00:14 33.54947 -112.19778 11747 ft 285 kts 356°
2026-05-08 00:15 33.56995 -112.19965 12104 ft 306 kts 357°
2026-05-08 00:15 33.59190 -112.20154 12438 ft 326 kts 357°
2026-05-08 00:15 33.61504 -112.20347 12860 ft 341 kts 358°
2026-05-08 00:15 33.63847 -112.20845 13642 ft 345 kts 347°
2026-05-08 00:16 33.66173 -112.21605 14345 ft 349 kts 347°
2026-05-08 00:16 33.68541 -112.22367 14980 ft 355 kts 348°
2026-05-08 00:16 33.70927 -112.23136 15716 ft 356 kts 347°
2026-05-08 00:16 33.73331 -112.23910 16397 ft 360 kts 348°
2026-05-08 00:17 33.75769 -112.24696 16978 ft 365 kts 348°
2026-05-08 00:17 33.78237 -112.25493 17630 ft 369 kts 348°
2026-05-08 00:17 33.80697 -112.26287 18233 ft 373 kts 349°
2026-05-08 00:17 33.83215 -112.27102 18778 ft 377 kts 348°
2026-05-08 00:18 33.85792 -112.27936 19344 ft 381 kts 348°
2026-05-08 00:18 33.88327 -112.28756 19902 ft 384 kts 348°
2026-05-08 00:18 33.90917 -112.29595 20430 ft 388 kts 348°
2026-05-08 00:18 33.93534 -112.30443 20968 ft 391 kts 348°
2026-05-08 00:19 33.96174 -112.31298 21515 ft 394 kts 348°
2026-05-08 00:19 33.98832 -112.32160 22024 ft 398 kts 348°
2026-05-08 00:19 34.01505 -112.33100 22538 ft 404 kts 341°
2026-05-08 00:19 34.03956 -112.34807 23089 ft 413 kts 326°
2026-05-08 00:20 34.06209 -112.36992 23539 ft 418 kts 325°
2026-05-08 00:20 34.08471 -112.39210 23971 ft 420 kts 324°
2026-05-08 00:20 34.10732 -112.41455 24388 ft 422 kts 324°
2026-05-08 00:20 34.13001 -112.43728 24801 ft 425 kts 324°
2026-05-08 00:21 34.15273 -112.46011 25293 ft 425 kts 324°
2026-05-08 00:21 34.17549 -112.48304 25748 ft 426 kts 324°
2026-05-08 00:21 34.19831 -112.50603 26159 ft 429 kts 324°
2026-05-08 00:21 34.22134 -112.52925 26577 ft 432 kts 324°
2026-05-08 00:22 34.24443 -112.55255 26964 ft 434 kts 324°
2026-05-08 00:22 34.26767 -112.57603 27358 ft 437 kts 324°
2026-05-08 00:22 34.29104 -112.59966 27743 ft 439 kts 324°
2026-05-08 00:22 34.31454 -112.62343 28131 ft 441 kts 324°
2026-05-08 00:23 34.33815 -112.64734 28501 ft 444 kts 324°
2026-05-08 00:23 34.36183 -112.67132 28919 ft 445 kts 324°
2026-05-08 00:23 34.38563 -112.69545 29298 ft 447 kts 324°
2026-05-08 00:23 34.40955 -112.71973 29631 ft 450 kts 324°
2026-05-08 00:24 34.43358 -112.74413 29974 ft 452 kts 324°
2026-05-08 00:24 34.45777 -112.76872 30265 ft 455 kts 324°
2026-05-08 00:24 34.48206 -112.79342 30556 ft 457 kts 323°
2026-05-08 00:24 34.50643 -112.81823 30874 ft 458 kts 323°
2026-05-08 00:25 34.53078 -112.84303 31264 ft 457 kts 323°
2026-05-08 00:25 34.55511 -112.86782 31658 ft 457 kts 323°
2026-05-08 00:25 34.57939 -112.89260 32073 ft 455 kts 323°
2026-05-08 00:25 34.60361 -112.91735 32485 ft 455 kts 323°
2026-05-08 00:26 34.62777 -112.94203 32901 ft 454 kts 323°
2026-05-08 00:26 34.65191 -112.96672 33307 ft 453 kts 323°
2026-05-08 00:26 34.67596 -112.99135 33696 ft 452 kts 323°
2026-05-08 00:26 34.69999 -113.01595 34061 ft 451 kts 323°
2026-05-08 00:27 34.72397 -113.04054 34386 ft 451 kts 323°
2026-05-08 00:27 34.73984 -113.05681 34617 ft 450 kts 323°
2026-05-08 00:27 34.76330 -113.08186 34990 ft 450 kts 317°
2026-05-08 00:27 34.78252 -113.11213 35310 ft 455 kts 304°
2026-05-08 00:28 34.79561 -113.14732 35546 ft 461 kts 289°
2026-05-08 00:28 34.80354 -113.18520 35797 ft 462 kts 289°
2026-05-08 00:28 34.81543 -113.22116 36058 ft 456 kts 300°
2026-05-08 00:28 34.82939 -113.25585 36278 ft 457 kts 299°
2026-05-08 00:29 34.84331 -113.29060 36539 ft 457 kts 299°
2026-05-08 00:29 34.85736 -113.32522 36805 ft 456 kts 300°
2026-05-08 00:29 34.87146 -113.35978 37068 ft 455 kts 300°
2026-05-08 00:29 34.88554 -113.39428 37309 ft 455 kts 300°
2026-05-08 00:30 34.89962 -113.42877 37546 ft 454 kts 300°
2026-05-08 00:30 34.91361 -113.46313 37782 ft 454 kts 300°
2026-05-08 00:30 34.92768 -113.49766 37894 ft 454 kts 300°
2026-05-08 00:30 34.94169 -113.53211 37857 ft 453 kts 300°
2026-05-08 00:31 34.96958 -113.60077 37868 ft 452 kts 299°
2026-05-08 00:31 34.99743 -113.66948 37854 ft 452 kts 299°
2026-05-08 00:32 35.02526 -113.73829 37864 ft 452 kts 299°
2026-05-08 00:32 35.05306 -113.80714 37861 ft 453 kts 299°
2026-05-08 00:33 35.08078 -113.87598 37856 ft 452 kts 299°
2026-05-08 00:33 35.10846 -113.94484 37849 ft 451 kts 299°
2026-05-08 00:34 35.13608 -114.01369 37840 ft 451 kts 299°
2026-05-08 00:34 35.16368 -114.08264 37954 ft 452 kts 299°
2026-05-08 00:35 35.19106 -114.15119 37943 ft 452 kts 299°
2026-05-08 00:35 35.21862 -114.22031 37923 ft 451 kts 299°
2026-05-08 00:36 35.24607 -114.28932 37883 ft 451 kts 299°
2026-05-08 00:36 35.27345 -114.35830 37867 ft 451 kts 299°
2026-05-08 00:37 35.30081 -114.42739 37852 ft 451 kts 299°
2026-05-08 00:38 35.34173 -114.53094 37864 ft 450 kts 299°
2026-05-08 00:38 35.36895 -114.60003 37859 ft 450 kts 299°
2026-05-08 00:39 35.39611 -114.66909 37873 ft 450 kts 299°
2026-05-08 00:39 35.42324 -114.73819 37880 ft 450 kts 298°
2026-05-08 00:40 35.45258 -114.80552 37876 ft 443 kts 313°
2026-05-08 00:40 35.49270 -114.86276 37873 ft 443 kts 314°
2026-05-08 00:41 35.53304 -114.92001 37902 ft 443 kts 314°
2026-05-08 00:41 35.57352 -114.97694 37897 ft 442 kts 314°
2026-05-08 00:42 35.61400 -115.03391 37918 ft 442 kts 314°
2026-05-08 00:42 35.65448 -115.09096 37915 ft 443 kts 314°
2026-05-08 00:43 35.69495 -115.14809 37938 ft 443 kts 314°
2026-05-08 00:43 35.73539 -115.20527 37935 ft 443 kts 314°
2026-05-08 00:44 35.77577 -115.26248 37936 ft 443 kts 314°
2026-05-08 00:44 35.81620 -115.31984 37945 ft 443 kts 314°
2026-05-08 00:45 35.85659 -115.37725 37953 ft 444 kts 313°
2026-05-08 00:45 35.89693 -115.43467 37955 ft 443 kts 313°
2026-05-08 00:46 35.93722 -115.49215 37944 ft 443 kts 313°
2026-05-08 00:46 35.97747 -115.54964 37961 ft 443 kts 313°
2026-05-08 00:47 36.01777 -115.60731 37949 ft 443 kts 313°
2026-05-08 00:47 36.05796 -115.66493 37940 ft 442 kts 313°
2026-05-08 00:48 36.09780 -115.72214 37951 ft 442 kts 313°
2026-05-08 00:48 36.13814 -115.78016 37942 ft 442 kts 313°
2026-05-08 00:49 36.17819 -115.83787 37944 ft 442 kts 313°
2026-05-08 00:49 36.21819 -115.89559 37925 ft 441 kts 313°
2026-05-08 00:50 36.25797 -115.95311 37901 ft 439 kts 313°
2026-05-08 00:50 36.29776 -116.01073 37915 ft 441 kts 313°
2026-05-08 00:51 36.33755 -116.06847 37879 ft 441 kts 313°
2026-05-08 00:51 36.37736 -116.12631 37881 ft 441 kts 313°
2026-05-08 00:52 36.41680 -116.18373 37860 ft 439 kts 312°
2026-05-08 00:52 36.45634 -116.24139 37859 ft 439 kts 312°
2026-05-08 00:53 36.49599 -116.29930 37847 ft 440 kts 312°
2026-05-08 00:53 36.53561 -116.35728 37850 ft 440 kts 312°
2026-05-08 00:54 36.57522 -116.41534 37840 ft 440 kts 312°
2026-05-08 00:54 36.61480 -116.47346 37848 ft 440 kts 312°
2026-05-08 00:55 36.65431 -116.53158 37844 ft 440 kts 312°
2026-05-08 00:55 36.69384 -116.58981 37847 ft 440 kts 311°
2026-05-08 00:56 36.73333 -116.64808 37849 ft 439 kts 311°
2026-05-08 00:56 36.77270 -116.70626 37851 ft 439 kts 311°
2026-05-08 00:57 36.81395 -116.76223 37856 ft 437 kts 319°
2026-05-08 00:57 36.85909 -116.81318 37858 ft 438 kts 319°
2026-05-08 00:58 36.90433 -116.86407 37860 ft 437 kts 319°
2026-05-08 00:58 36.94959 -116.91502 37872 ft 439 kts 319°
2026-05-08 00:59 36.99492 -116.96613 37864 ft 439 kts 319°
2026-05-08 00:59 37.04025 -117.01733 37877 ft 439 kts 319°
2026-05-08 01:00 37.08553 -117.06854 37884 ft 438 kts 319°
2026-05-08 01:00 37.13074 -117.11977 37887 ft 438 kts 319°
2026-05-08 01:01 37.17594 -117.17107 37896 ft 438 kts 319°
2026-05-08 01:01 37.22119 -117.22252 37911 ft 440 kts 318°
2026-05-08 01:02 37.26643 -117.27404 37902 ft 439 kts 318°
2026-05-08 01:02 37.30965 -117.32800 37905 ft 438 kts 310°
2026-05-08 01:03 37.34865 -117.38704 37887 ft 439 kts 310°
2026-05-08 01:03 37.38755 -117.44622 37894 ft 439 kts 310°
2026-05-08 01:04 37.42641 -117.50552 37894 ft 440 kts 310°
2026-05-08 01:04 37.46538 -117.56508 37895 ft 441 kts 310°
2026-05-08 01:05 37.50406 -117.62431 37880 ft 441 kts 310°
2026-05-08 01:05 37.54320 -117.68436 37895 ft 440 kts 310°
2026-05-08 01:06 37.58175 -117.74361 37893 ft 440 kts 309°
2026-05-08 01:06 37.62078 -117.80370 37889 ft 440 kts 309°
2026-05-08 01:07 37.65923 -117.86301 37901 ft 440 kts 309°
2026-05-08 01:07 37.69795 -117.92284 37902 ft 439 kts 309°
2026-05-08 01:08 37.73505 -117.98413 37912 ft 439 kts 306°
2026-05-08 01:08 37.77051 -118.04712 37898 ft 440 kts 306°
2026-05-08 01:09 37.80613 -118.10992 37916 ft 439 kts 306°
2026-05-08 01:09 37.84169 -118.17265 37918 ft 439 kts 306°
2026-05-08 01:10 37.87730 -118.23558 37928 ft 440 kts 306°
2026-05-08 01:10 37.91288 -118.29859 37923 ft 440 kts 306°
2026-05-08 01:11 37.94844 -118.36166 37936 ft 440 kts 306°
2026-05-08 01:11 37.98379 -118.42451 37936 ft 434 kts 305°
2026-05-08 01:12 38.01291 -118.47635 37935 ft 436 kts 305°
2026-05-08 01:12 38.04808 -118.53909 37947 ft 434 kts 305°
2026-05-08 01:13 38.08303 -118.60155 37959 ft 435 kts 305°
2026-05-08 01:13 38.11811 -118.66436 37960 ft 435 kts 305°
2026-05-08 01:14 38.15312 -118.72716 37960 ft 437 kts 304°
2026-05-08 01:14 38.18825 -118.79030 37964 ft 437 kts 304°
2026-05-08 01:15 38.22324 -118.85331 37968 ft 436 kts 304°
2026-05-08 01:15 38.25827 -118.91652 37988 ft 437 kts 304°
2026-05-08 01:16 38.29301 -118.97933 37984 ft 433 kts 304°
2026-05-08 01:16 38.32784 -119.04241 38000 ft 436 kts 304°
2026-05-08 01:17 38.36255 -119.10541 37994 ft 434 kts 304°
2026-05-08 01:17 38.39734 -119.16867 38027 ft 436 kts 304°
2026-05-08 01:18 38.43201 -119.23183 38010 ft 434 kts 304°
2026-05-08 01:18 38.46668 -119.29514 38048 ft 437 kts 304°
2026-05-08 01:19 38.50139 -119.35858 38015 ft 434 kts 304°
2026-05-08 01:19 38.53601 -119.42205 38046 ft 437 kts 303°
2026-05-08 01:20 38.57035 -119.48510 38040 ft 433 kts 303°
2026-05-08 01:20 38.58770 -119.51698 37461 ft 430 kts 304°
2026-05-08 01:20 38.60456 -119.54802 36732 ft 432 kts 304°
2026-05-08 01:20 38.62167 -119.57955 36079 ft 431 kts 304°
2026-05-08 01:21 38.63878 -119.61110 35430 ft 431 kts 304°
2026-05-08 01:21 38.65588 -119.64264 34714 ft 433 kts 304°
2026-05-08 01:21 38.67306 -119.67439 34007 ft 435 kts 304°
2026-05-08 01:21 38.69025 -119.70620 33207 ft 436 kts 305°
2026-05-08 01:22 38.70755 -119.73823 32476 ft 437 kts 305°
2026-05-08 01:22 38.72484 -119.77028 31760 ft 438 kts 305°
2026-05-08 01:22 38.74216 -119.80241 31016 ft 440 kts 305°
2026-05-08 01:22 38.75972 -119.83499 30243 ft 448 kts 305°
2026-05-08 01:23 38.77748 -119.86801 29455 ft 451 kts 305°
2026-05-08 01:23 38.79525 -119.90111 28904 ft 451 kts 305°
2026-05-08 01:23 38.81302 -119.93418 28334 ft 449 kts 304°
2026-05-08 01:23 38.83071 -119.96717 27732 ft 447 kts 305°
2026-05-08 01:24 38.84816 -119.99973 27123 ft 441 kts 304°
2026-05-08 01:24 38.86547 -120.03207 26418 ft 438 kts 304°
2026-05-08 01:24 38.88262 -120.06414 25832 ft 434 kts 304°
2026-05-08 01:24 38.89964 -120.09597 25240 ft 431 kts 304°
2026-05-08 01:25 38.91655 -120.12765 24656 ft 429 kts 304°
2026-05-08 01:25 38.93336 -120.15916 24072 ft 427 kts 304°
2026-05-08 01:25 38.95010 -120.19056 23440 ft 425 kts 303°
2026-05-08 01:25 38.96672 -120.22176 22784 ft 422 kts 304°
2026-05-08 01:26 38.98321 -120.25281 22211 ft 418 kts 303°
2026-05-08 01:26 38.99603 -120.28607 21527 ft 416 kts 287°
2026-05-08 01:26 39.00336 -120.32174 21061 ft 409 kts 285°
2026-05-08 01:26 39.01046 -120.35695 20555 ft 405 kts 284°
2026-05-08 01:27 39.01733 -120.39186 20040 ft 402 kts 284°
2026-05-08 01:27 39.02406 -120.42659 19510 ft 399 kts 284°
2026-05-08 01:27 39.03068 -120.46103 18996 ft 392 kts 284°
2026-05-08 01:27 39.03707 -120.49441 18518 ft 379 kts 284°
2026-05-08 01:28 39.04325 -120.52675 17958 ft 367 kts 284°
2026-05-08 01:28 39.04927 -120.55832 17488 ft 361 kts 284°
2026-05-08 01:28 39.05516 -120.58923 17014 ft 350 kts 284°
2026-05-08 01:28 39.06093 -120.61957 16541 ft 348 kts 283°
2026-05-08 01:29 39.06668 -120.64980 16080 ft 346 kts 283°
2026-05-08 01:29 39.07102 -120.68007 15558 ft 343 kts 271°
2026-05-08 01:29 39.06767 -120.71015 15128 ft 341 kts 254°
2026-05-08 01:29 39.06075 -120.73928 14682 ft 339 kts 253°
2026-05-08 01:30 39.05366 -120.76808 14262 ft 338 kts 253°
2026-05-08 01:30 39.04641 -120.79682 13779 ft 338 kts 253°
2026-05-08 01:30 39.03904 -120.82559 13266 ft 339 kts 252°
2026-05-08 01:30 39.03163 -120.85419 12790 ft 338 kts 252°
2026-05-08 01:31 39.02421 -120.88271 12324 ft 333 kts 252°
2026-05-08 01:31 39.01698 -120.91043 11874 ft 321 kts 252°
2026-05-08 01:31 39.01000 -120.93714 11449 ft 310 kts 252°
2026-05-08 01:31 39.00323 -120.96301 11050 ft 300 kts 252°
2026-05-08 01:32 38.99667 -120.98808 10666 ft 291 kts 252°
2026-05-08 01:32 38.99029 -121.01241 10286 ft 283 kts 252°
2026-05-08 01:32 38.98409 -121.03608 9903 ft 276 kts 252°
2026-05-08 01:32 38.97801 -121.05921 9508 ft 272 kts 252°
2026-05-08 01:33 38.97195 -121.08227 9129 ft 272 kts 252°
2026-05-08 01:33 38.96589 -121.10529 8718 ft 272 kts 252°
2026-05-08 01:33 38.95984 -121.12822 8346 ft 271 kts 251°
2026-05-08 01:33 38.95380 -121.15111 8014 ft 270 kts 251°
2026-05-08 01:34 38.94818 -121.17411 7662 ft 269 kts 260°
2026-05-08 01:34 38.94836 -121.19789 7382 ft 268 kts 277°
2026-05-08 01:34 38.95112 -121.22159 7186 ft 266 kts 278°
2026-05-08 01:34 38.95387 -121.24454 6960 ft 256 kts 278°
2026-05-08 01:35 38.95659 -121.26702 6746 ft 254 kts 278°
2026-05-08 01:35 38.95931 -121.28945 6526 ft 253 kts 278°
2026-05-08 01:35 38.96148 -121.31181 6296 ft 252 kts 271°
2026-05-08 01:35 38.96143 -121.33430 6073 ft 251 kts 268°
2026-05-08 01:36 38.96108 -121.35662 5851 ft 250 kts 268°
2026-05-08 01:36 38.96073 -121.37898 5614 ft 250 kts 268°
2026-05-08 01:36 38.96035 -121.40136 5376 ft 251 kts 268°
2026-05-08 01:36 38.96003 -121.42339 5139 ft 249 kts 268°
2026-05-08 01:37 38.95964 -121.44562 4902 ft 249 kts 268°
2026-05-08 01:37 38.95769 -121.46759 4658 ft 248 kts 256°
2026-05-08 01:37 38.95315 -121.48888 4422 ft 247 kts 253°
2026-05-08 01:37 38.94829 -121.51005 4185 ft 247 kts 253°
2026-05-08 01:38 38.94315 -121.53102 3934 ft 245 kts 249°
2026-05-08 01:38 38.93685 -121.55127 3709 ft 242 kts 248°
2026-05-08 01:38 38.93050 -121.57103 3462 ft 237 kts 245°
2026-05-08 01:38 38.92045 -121.58741 3187 ft 235 kts 218°
2026-05-08 01:39 38.90598 -121.59602 3067 ft 225 kts 194°
2026-05-08 01:39 38.89093 -121.59825 3057 ft 215 kts 182°
2026-05-08 01:39 38.87589 -121.59842 3032 ft 217 kts 181°
2026-05-08 01:39 38.86098 -121.59855 2911 ft 210 kts 182°
2026-05-08 01:40 38.84670 -121.59877 2675 ft 200 kts 182°
2026-05-08 01:40 38.83309 -121.59900 2413 ft 191 kts 181°
2026-05-08 01:40 38.82013 -121.59921 2168 ft 180 kts 181°
2026-05-08 01:40 38.80840 -121.59940 2000 ft 158 kts 181°
2026-05-08 01:41 38.79785 -121.59957 1781 ft 148 kts 181°
2026-05-08 01:41 38.78761 -121.59973 1586 ft 147 kts 181°
2026-05-08 01:41 38.77742 -121.59990 1385 ft 146 kts 181°
2026-05-08 01:41 38.76724 -121.60007 1208 ft 145 kts 181°
2026-05-08 01:42 38.75727 -121.60032 1018 ft 142 kts 182°
2026-05-08 01:42 38.74739 -121.60049 835 ft 141 kts 181°
2026-05-08 01:42 38.73761 -121.60045 622 ft 141 kts 181°
2026-05-08 01:42 38.72775 -121.60067 461 ft 142 kts 183°
2026-05-08 01:43 38.71786 -121.60098 277 ft 142 kts 181°
2026-05-08 01:43 38.70802 -121.60107 91 ft 142 kts 181°
2026-05-08 01:43 38.69867 -121.60124 32 ft 120 kts 180°
2026-05-08 01:43 38.69252 -121.60135 30 ft 54 kts 181°
2026-05-08 01:44 38.69086 -121.60125 33 ft 14 kts 151°
2026-05-08 01:44 38.69058 -121.60053 32 ft 0 kts 93°
2026-05-08 01:44 38.69058 -121.60027 31 ft 6 kts 91°
2026-05-08 01:44 38.69058 -121.59949 31 ft 10 kts 89°
2026-05-08 01:45 38.69096 -121.59880 31 ft 11 kts 20°
2026-05-08 01:45 38.69182 -121.59873 31 ft 14 kts
2026-05-08 01:45 38.69287 -121.59870 31 ft 16 kts
2026-05-08 01:45 38.69409 -121.59870 31 ft 19 kts 360°
2026-05-08 01:46 38.69548 -121.59866 31 ft 21 kts
2026-05-08 01:46 38.69677 -121.59860 31 ft 13 kts 18°
2026-05-08 01:46 38.69702 -121.59763 31 ft 13 kts 90°
2026-05-08 01:46 38.69701 -121.59626 31 ft 18 kts 90°
2026-05-08 01:47 38.69700 -121.59486 31 ft 11 kts 91°
2026-05-08 01:47 38.69699 -121.59407 31 ft 9 kts 91°
2026-05-08 01:47 38.69697 -121.59298 31 ft 16 kts 91°
2026-05-08 01:48 38.69694 -121.58987 31 ft 16 kts 92°
2026-05-08 01:48 38.69670 -121.58918 31 ft 8 kts 163°
2026-05-08 01:48 38.69611 -121.58892 31 ft 10 kts 134°
2026-05-08 01:48 38.69574 -121.58821 31 ft 8 kts 142°
2026-05-08 01:49 38.69521 -121.58811 31 ft 6 kts 179°
2026-05-08 01:49 38.69502 -121.58811 31 ft 0 kts 180°